Powrót do katalogu

COSMOS 1818 COOLANT

LostLEO
NORAD 36951·DEBRIS·🇷🇺 Russia

Wystrzelony Feb 1, 1987 z Baikonur Cosmodrome

Loading…

Następne Przeloty (najbliższe 24 godziny)

TLE

NieaktualneSource: Space-Track

Epoka: May 15, 2016, 09:21 UTC

1 36951U 87011AF  16136.38961746 +.00000217 +00000-0 +11491-3 0  9991
2 36951 064.9952 119.0963 0020734 232.9739 127.0624 14.33348672085366

Śledź COSMOS 1818 COOLANT w czasie rzeczywistym z AllMySat

Download on the App Store